Weather History for Cleveland, OH

Change the Weather History Date:

Friday, January 25, 2013

  Actual Average Record
Temperature  
Mean Temperature 16 °F 28 °F  
Max Temperature 19 °F 35 °F 73 °F (1950)
Min Temperature 12 °F 22 °F -15 °F (1897)
Degree Days  
Heating Degree Days 49 37  
Month to date heating degree days 883 924  
Since 1 July heating degree days 2964 3031  
Cooling Degree Days 0 0  
Month to date cooling degree days 0 0  
Year to date cooling degree days 0 0  
Moisture  
Dew Point 10 °F    
Average Humidity 80    
Maximum Humidity 92    
Minimum Humidity 67    
Precipitation  
Precipitation 0.15 in 0.08 in 0.41 in (1975)
Month to date precipitation 1.15 2.25  
Year to date precipitation 1.15 2.25  
Snow  
Snow 1.80 in 0.60 in - ()
Month to date snowfall 4.3 15.0  
Since 1 July snowfall 19.8 33.6  
Snow Depth 1.00 in    
Sea Level Pressure  
Sea Level Pressure 30.24 in    
Wind  
Wind Speed 7 mph (SSE)    
Max Wind Speed 13 mph    
Max Gust Speed 16 mph    
Visibility 6 miles    
Events Snow    
T = Trace of Precipitation, MM = Missing Value Source: NWS Daily Summary

Daily Weather History Graph

Daily Weather History Graph

Search for Another Location

Airport:

Trip Planner

Search our weather history database for the weather conditions in past years. The results will help you decide how hot, cold, wet, or windy it might be!

Date:

Astronomy

Jan. 25, 2013 Rise Set
Actual Time 7:44 AM EST 5:35 PM EST
Civil Twilight 7:15 AM EST 6:04 PM EST
Nautical Twilight 6:41 AM EST 6:38 PM EST
Astronomical Twilight 6:08 AM EST 7:11 PM EST
Moon 4:31 PM EST (1/25) 6:23 AM EST (1/25)
Length of Visible Light 10h 49m
Length of Day
9h 50m
Waxing Gibbous, 98% of the Moon is Illuminated
Jan 25
Waxing Gibbous
Jan 26
Full
Feb 3
Last Quarter
Feb 10
New
Feb 17
First Quarter

Hourly Weather History & Observations

Time (EST) Temp. Windchill Dew Point Humidity Pressure Visibility Wind Dir Wind Speed Gust Speed Precip Events Conditions
12:51 AM 12.9 °F 5.2 °F 6.1 °F 74% 30.55 in 10.0 mi South 4.6 mph - N/A   Overcast
1:51 AM 14.0 °F 6.5 °F 7.0 °F 74% 30.52 in 10.0 mi SSE 4.6 mph - N/A   Overcast
2:51 AM 15.1 °F 6.4 °F 6.1 °F 68% 30.51 in 10.0 mi SSE 5.8 mph - N/A   Overcast
3:51 AM 15.1 °F 4.2 °F 6.1 °F 68% 30.48 in 10.0 mi SSE 8.1 mph - N/A   Overcast
4:51 AM 15.1 °F 4.2 °F 6.1 °F 68% 30.45 in 10.0 mi SSE 8.1 mph - N/A   Overcast
5:51 AM 15.8 °F 5.1 °F 6.8 °F 68% 30.36 in 10.0 mi SE 8.1 mph - N/A   Overcast
6:51 AM 16.0 °F 6.3 °F 6.1 °F 65% 30.36 in 10.0 mi SE 6.9 mph - N/A   Overcast
7:29 AM 15.1 °F 2.5 °F 6.1 °F 68% 30.28 in 5.0 mi SE 10.4 mph - 0.00 in Snow Light Snow
7:51 AM 15.1 °F 3.3 °F 8.1 °F 74% 30.32 in 4.0 mi ESE 9.2 mph - 0.00 in Snow Light Snow
8:36 AM 15.1 °F 6.4 °F 9.0 °F 77% 30.28 in 2.0 mi SE 5.8 mph - 0.00 in Snow Light Snow
8:38 AM 15.1 °F 5.2 °F 9.0 °F 77% 30.28 in 1.8 mi SE 6.9 mph - 0.00 in Snow Light Snow
8:51 AM 15.1 °F 6.4 °F 9.0 °F 77% 30.33 in 3.0 mi SE 5.8 mph - 0.00 in Snow Light Snow
9:21 AM 15.1 °F 2.5 °F 9.0 °F 77% 30.25 in 9.0 mi SE 10.4 mph - 0.00 in Snow Light Snow
9:51 AM 15.1 °F 1.8 °F 9.0 °F 77% 30.29 in 8.0 mi SE 11.5 mph - 0.00 in Snow Light Snow
10:04 AM 15.1 °F 1.8 °F 10.0 °F 80% 30.23 in 0.8 mi SE 11.5 mph - 0.00 in Snow Light Snow
10:25 AM 15.1 °F 2.5 °F 10.9 °F 84% 30.23 in 0.8 mi SE 10.4 mph - 0.01 in Snow Light Snow
10:41 AM 15.1 °F 1.8 °F 10.9 °F 84% 30.21 in 1.0 mi ESE 11.5 mph - 0.02 in Snow Light Snow
10:51 AM 15.1 °F 3.3 °F 10.9 °F 84% 30.26 in 1.0 mi ESE 9.2 mph - 0.02 in Snow Light Snow
2:32 PM 18.0 °F 7.7 °F 12.0 °F 78% 30.08 in 4.0 mi South 8.1 mph - 0.00 in Snow Light Snow
2:51 PM 18.0 °F 9.8 °F 12.0 °F 78% 30.11 in 9.0 mi South 5.8 mph - 0.00 in Snow Light Snow
3:51 PM 19.0 °F 12.3 °F 12.9 °F 77% 30.09 in 9.0 mi South 4.6 mph - 0.00 in Snow Light Snow
4:51 PM 18.0 °F 11.1 °F 12.0 °F 78% 30.09 in 4.0 mi SSW 4.6 mph - 0.00 in Snow Light Snow
5:51 PM 18.0 °F 11.1 °F 12.9 °F 81% 30.09 in 6.0 mi South 4.6 mph - 0.00 in Snow Light Snow
6:51 PM 18.0 °F 8.7 °F 12.9 °F 81% 30.09 in 8.0 mi South 6.9 mph - 0.00 in Snow Light Snow
7:51 PM 18.0 °F 11.1 °F 12.9 °F 81% 30.09 in 8.0 mi South 4.6 mph - 0.00 in Snow Light Snow
8:51 PM 18.0 °F 11.1 °F 12.9 °F 81% 30.11 in 4.0 mi SW 4.6 mph - 0.00 in Snow Light Snow
9:49 PM 17.6 °F 8.2 °F 14.0 °F 86% 30.08 in 2.0 mi SSW 6.9 mph - 0.00 in Snow Light Snow
9:50 PM 18.0 °F 9.8 °F 14.0 °F 84% 30.12 in 2.0 mi SSW 5.8 mph - 0.00 in Snow Light Snow
10:03 PM 18.0 °F 9.8 °F 14.0 °F 84% 30.09 in 3.0 mi SSW 5.8 mph - 0.00 in Snow Light Snow
10:51 PM 18.0 °F 9.8 °F 15.1 °F 88% 30.12 in 4.0 mi SSW 5.8 mph - 0.01 in Snow Light Snow
11:51 PM 19.0 °F 11.1 °F 15.1 °F 85% 30.12 in 5.0 mi South 5.8 mph - 0.00 in Snow Light Snow